Погода в Монине

Россия / Псковская область     56°37′47″N   29°34′37″E
темп.,
°C
ветер,
м/с
пор.,
м/с
влажн.,
%
обл.,
%
осадки,
мм/ч
давл.,
гПа
погр.,
м
22 января, сб
сб2200:00−8с31096100 0.2 999354
03:00−8с4109588 0.5 1002367
06:00−9с41096100 0.2 1005315
09:00−7с41195100 1.1 1006974
12:00−6ссв51092100 0.9 10091061
15:00−7ссв498986 1.0 1012856
18:00−9с3109494 0.0 1015408
21:00−11ссв31097100 0.1 1018286
23 января, вс
вс2300:00−15с26100100 0.0 1020101
03:00−16с27100100 0.1 1023110
06:00−16св2710097 0.0 102599
09:00−19ссв1210099 0.0 102820
12:00−10св129264 0.0 1030100
15:00−8ссз019173 0.0 1031133
18:00−14ююз119967 0.0 10349
21:00−16ююз1110078 0.0 103610
24 января, пн
пн2400:00−15ююз2310083 0.0 103737
03:00−14юз269870 0.0 103780
06:00−14ююз279752 0.0 1037102
09:00−13ююз389622 0.0 1037123
12:00−9ююз410915 0.0 1036214
15:00−6ююз411895 0.0 1034336
18:00−8ююз413905 0.0 1033313
21:00−9ююз5158994 0.0 1031324
25 января, вт
вт2500:00−8ююз51684100 0.0 1029370
03:00−7ююз51592100 0.0 1026400
06:00−6ююз51395100 0.2 1023409
09:00−5ююз41195100 0.6 1021344
12:00−3юз4996100 0.6 1020286
15:00−1з3997100 0.9 1019461
18:00−1ссз489158 0.1 1020736
21:00−3с498596 0.1 1022842
26 января, ср
ср2600:00−6ссз4109885 0.0 1023342
03:00−9ссз3109794 0.1 1025242
06:00−13ссз25100100 0.0 102670
09:00−11с26100100 0.1 1026126
12:00−9с239895 0.0 1026140
15:00−6сз11895 0.0 1025169
18:00−14ююз1199100 0.0 10249
21:00−12ю2598100 0.0 102270